This demonstration page uses our WeatherBlox Daily Observations layout. Learn more.

Left ArrowRight Arrow

39.92423, -83.80882

Hourly Observations for February 29, 2016

Temp ( °F °C ) Dew Point ( °F °C ) Humidity (%) Winds ( mph kmh ) Pressure ( in mb ) Visibility ( mi km ) Precip ( " mm )
12:56 am 00:56 Cloudy with Haze 53 11.6 44 6.6 72 72 SSW 18 30 29.59 1002 6 10 N/A
1:08 am 01:08 Mostly Cloudy with Rain 52 11 46 8 82 82 W 28 44 29.65 1004 3 4 0.04 1.02
1:13 am 01:13 Mostly Cloudy with Light Rain 52 11 46 8 82 82 W 22 35 29.65 1004 3 5 0.04 1.02
1:56 am 01:56 Cloudy with Light Rain 47 8.3 46 7.7 96 96 W 14 22 29.67 1005 10 16 0.10 2.54
2:22 am 02:22 Cloudy with Light Rain 46 8 45 7 93 93 W 20 31 29.68 1005 8 13 0.02 0.51
2:40 am 02:40 Cloudy 46 8 45 7 93 93 W 22 35 29.71 1006 10 16 0.02 0.51
2:56 am 02:56 Cloudy 46 7.7 43 6.1 90 90 W 23 37 29.71 1006 10 16 0.02 0.51
3:14 am 03:14 Cloudy 45 7 43 6 93 93 W 23 37 29.77 1008 10 16 N/A
3:56 am 03:56 Cloudy with Light Rain 41 5 39 3.8 92 92 WNW 18 30 29.77 1008 4 6 N/A
4:03 am 04:03 Cloudy with Light Rain 39 4 39 4 100 100 W 18 30 29.80 1009 5 8 N/A
4:23 am 04:23 Cloudy 39 4 37 3 93 93 W 20 31 29.83 1010 10 16 N/A
4:44 am 04:44 Cloudy 39 4 37 3 93 93 W 16 26 29.85 1011 10 16 N/A
4:56 am 04:56 Cloudy 40 4.4 38 3.3 93 93 W 15 24 29.83 1010 10 16 N/A
5:40 am 05:40 Cloudy 39 4 36 2 87 87 W 23 37 29.88 1012 10 16 N/A
5:56 am 05:56 Cloudy 38 3.3 35 1.6 89 89 W 23 37 29.88 1012 10 16 N/A
6:09 am 06:09 Cloudy 37 3 36 2 93 93 W 17 28 29.91 1013 10 16 N/A
6:30 am 06:30 Cloudy 37 3 36 2 93 93 W 16 26 29.94 1014 10 16 N/A
6:56 am 06:56 Cloudy 37 2.7 34 1.1 89 89 W 16 26 29.91 1013 10 16 N/A
7:10 am 07:10 Cloudy 37 3 34 1 87 87 W 14 22 29.94 1014 10 16 N/A
7:35 am 07:35 Cloudy 37 3 34 1 87 87 W 14 22 29.94 1014 10 16 N/A
7:56 am 07:56 Cloudy 38 3.3 34 1.1 86 86 W 14 22 29.94 1014 10 16 N/A
8:45 am 08:45 Cloudy 37 3 36 2 93 93 W 8 13 30.00 1016 10 16 N/A
8:56 am 08:56 Cloudy 38 3.3 35 1.6 89 89 W 14 22 29.97 1015 10 16 N/A
9:56 am 09:56 Cloudy 38 3.3 32 undefined 79 79 W 16 26 30.00 1016 10 16 N/A
10:56 am 10:56 Cloudy 40 4.4 33 0.5 76 76 WSW 18 30 30.03 1017 10 16 N/A
11:56 am 11:56 Mostly Cloudy 42 5.5 34 1.1 74 74 WSW 20 31 30.04 1017 10 16 N/A
12:10 pm 12:10 Partly Cloudy 43 6 36 2 76 76 SW 17 28 30.06 1018 10 16 N/A
12:56 pm 12:56 Sunny 45 7.2 35 1.6 68 68 SW 16 26 30.02 1017 10 16 N/A
1:56 pm 13:56 Sunny 47 8.3 35 1.6 63 63 SW 14 22 30.00 1016 10 16 N/A
2:56 pm 14:56 Sunny 51 10.5 35 1.6 54 54 SW 17 28 29.99 1016 10 16 N/A
3:56 pm 15:56 Sunny 53 11.6 34 1.1 49 49 SW 15 24 29.98 1015 10 16 N/A
4:56 pm 16:56 Sunny 53 11.6 33 0.5 47 47 SSW 14 22 29.99 1016 10 16 N/A
5:56 pm 17:56 Sunny 52 11.1 32 undefined 47 47 WSW 8 13 30.00 1016 10 16 N/A
6:56 pm 18:56 Clear 47 8.3 31 -0.5 54 54 SSW 6 9 30.02 1017 10 16 N/A
7:56 pm 19:56 Clear 46 7.7 32 undefined 59 59 SSW 7 11 30.03 1017 10 16 N/A
8:56 pm 20:56 Clear 44 6.6 31 -0.5 61 61 S 6 9 30.03 1017 10 16 N/A
9:56 pm 21:56 Clear 42 5.5 31 -0.5 66 66 SSW 7 11 30.04 1017 10 16 N/A
10:56 pm 22:56 Clear 38 3.3 30 -1.1 73 73 NNE 5 7 30.06 1018 10 16 N/A
11:56 pm 23:56 Clear 35 1.6 30 -1.1 82 82 E 3 6 30.05 1018 10 16 N/A

Powered by AerisWeather